Date String (YYYY-MM-DD hh:mm:ss) UTC,Instrument flags,Ambient pressure (hPa),Sample flow (lpm),Bypass flow (lpm),Sample temperature (°C),Ambient temperature (°C),ASC tube jacket temperature (°C),LED temperature (°C),Box temperature (°C),Sample RH (%),Span deviation,Mass concentration (μg/m³),Mass concentration (μg/m³),Mass concentration (μg/m³)
DateTimeUTC,F1_M11,P_M11,Q1_M11,Q2_M11,T1_M11,T2_M11,T3_M11,T4_M11,T5_M11,U1_M11,ZSPAN_M11,X0_M11,X2_M11,X1_M11
2022-12-17 20:00:00,,0822.3,4.96,0.00,22.6,21.3,00.0,31.4,24.4,04.6,0000.0,0009.59,0003.61,0002.99
2022-12-17 20:01:00,,0822.3,5.02,0.00,22.6,21.2,00.0,31.4,24.4,04.5,0000.0,0009.62,0003.61,0002.95
2022-12-17 20:02:00,,0822.3,4.97,0.00,22.6,21.1,00.0,31.4,24.4,04.5,0000.0,0009.60,0003.61,0002.90
2022-12-17 20:03:00,,0822.2,5.04,0.00,22.6,21.1,00.0,31.4,24.4,04.5,0000.0,0008.96,0003.59,0002.87
2022-12-17 20:04:00,,0822.3,4.97,0.00,22.6,21.1,00.0,31.4,24.4,04.5,0000.0,0008.19,0003.53,0002.83
2022-12-17 20:05:00,,0822.3,5.04,0.00,22.6,21.2,00.0,31.4,24.4,04.5,0000.0,0008.29,0003.50,0002.78
2022-12-17 20:06:00,,0822.3,4.97,0.00,22.6,21.3,00.0,31.4,24.4,04.6,0000.0,0008.88,0003.44,0002.75
2022-12-17 20:07:00,,0822.2,5.03,0.00,22.6,21.3,00.0,31.4,24.4,04.6,0000.0,0009.19,0003.37,0002.71
2022-12-17 20:08:00,,0822.3,4.97,0.00,22.6,21.3,00.0,31.4,24.4,04.5,0000.0,0009.01,0003.36,0002.69
2022-12-17 20:09:00,,0822.3,5.00,0.00,22.6,21.3,00.0,31.4,24.4,04.6,0000.0,0009.25,0003.38,0002.68
2022-12-17 20:10:00,,0822.3,5.01,0.00,22.6,21.3,00.0,31.4,24.5,04.5,0000.0,0009.08,0003.40,0002.66
2022-12-17 20:11:00,,0822.3,4.99,0.00,22.6,21.2,00.0,31.4,24.5,04.5,0000.0,0009.17,0003.39,0002.65
2022-12-17 20:12:00,,0822.2,5.00,0.00,22.6,21.2,00.0,31.4,24.4,04.5,0000.0,0009.38,0003.41,0002.65
2022-12-17 20:13:00,,0822.2,5.03,0.00,22.6,21.2,00.0,31.4,24.5,04.4,0000.0,0009.38,0003.39,0002.65
2022-12-17 20:14:00,,0822.2,4.97,0.00,22.6,21.2,00.0,31.4,24.5,04.4,0000.0,0009.35,0003.40,0002.66
2022-12-17 20:15:00,,0822.2,5.03,0.00,22.6,21.2,00.0,31.4,24.4,04.5,0000.0,0009.26,0003.40,0002.65
2022-12-17 20:16:00,,0822.2,4.98,0.00,22.6,21.2,00.0,31.4,24.4,04.5,0000.0,0009.14,0003.38,0002.66
2022-12-17 20:17:00,,0822.3,4.99,0.00,22.6,21.2,00.0,31.4,24.5,04.5,0000.0,0008.81,0003.41,0002.65
2022-12-17 20:18:00,,0822.3,5.02,0.00,22.6,21.2,00.0,31.4,24.4,04.5,0000.0,0008.34,0003.41,0002.64
2022-12-17 20:19:00,,0822.2,4.97,0.00,22.6,21.2,00.0,31.4,24.4,04.5,0000.0,0008.37,0003.42,0002.62
2022-12-17 20:20:00,,0822.3,5.04,0.00,22.6,21.2,00.0,31.4,24.4,04.5,0000.0,0008.35,0003.40,0002.60
2022-12-17 20:21:00,,0822.2,4.97,0.00,22.6,21.3,00.0,31.4,24.4,04.5,0000.0,0007.66,0003.38,0002.59
2022-12-17 20:22:00,,0822.2,5.03,0.00,22.6,21.3,00.0,31.4,24.5,04.5,0000.0,0007.38,0003.34,0002.58
2022-12-17 20:23:00,,0822.2,4.97,0.00,22.6,21.4,00.0,31.4,24.5,04.5,0000.0,0007.56,0003.32,0002.59
2022-12-17 20:24:00,,0822.2,5.02,0.00,22.6,21.4,00.0,31.4,24.5,04.6,0000.0,0007.59,0003.35,0002.61
2022-12-17 20:25:00,,0822.1,4.98,0.00,22.6,21.3,00.0,31.4,24.5,04.5,0000.0,0007.79,0003.32,0002.60
2022-12-17 20:26:00,,0822.0,5.02,0.00,22.6,21.3,00.0,31.4,24.5,04.5,0000.0,0008.19,0003.34,0002.62
2022-12-17 20:27:00,,0822.0,4.98,0.00,22.6,21.4,00.0,31.4,24.5,04.6,0000.0,0008.19,0003.34,0002.63
2022-12-17 20:28:00,,0822.1,5.02,0.00,22.6,21.4,00.0,31.4,24.5,04.6,0000.0,0007.78,0003.35,0002.64
2022-12-17 20:29:00,,0822.1,4.98,0.00,22.7,21.4,00.0,31.4,24.6,04.6,0000.0,0007.65,0003.36,0002.67
2022-12-17 20:30:00,,0822.0,4.99,0.00,22.7,21.5,00.0,31.5,24.6,04.6,0000.0,0007.74,0003.37,0002.69
2022-12-17 20:31:00,,0821.9,5.02,0.00,22.7,21.5,00.0,31.5,24.6,04.6,0000.0,0008.25,0003.35,0002.71
2022-12-17 20:32:00,,0822.0,4.98,0.00,22.7,21.5,00.0,31.5,24.6,04.6,0000.0,0008.39,0003.34,0002.72
2022-12-17 20:33:00,,0822.2,5.03,0.00,22.7,21.5,00.0,31.5,24.6,04.6,0000.0,0009.23,0003.40,0002.73
2022-12-17 20:34:00,,0822.1,4.97,0.00,22.7,21.6,00.0,31.5,24.6,04.6,0000.0,0009.02,0003.40,0002.73
2022-12-17 20:35:00,,0822.0,5.03,0.00,22.7,21.6,00.0,31.5,24.6,04.6,0000.0,0008.98,0003.40,0002.73
2022-12-17 20:36:00,,0821.8,4.96,0.00,22.7,21.6,00.0,31.5,24.6,04.6,0000.0,0009.29,0003.45,0002.75
2022-12-17 20:37:00,,0821.8,5.04,0.00,22.8,21.6,00.0,31.5,24.6,04.6,0000.0,0009.76,0003.45,0002.76
2022-12-17 20:38:00,,0821.8,4.98,0.00,22.8,21.6,00.0,31.5,24.6,04.6,0000.0,0010.63,0003.48,0002.76
2022-12-17 20:39:00,,0821.8,4.99,0.00,22.8,21.7,00.0,31.5,24.6,04.6,0000.0,0010.92,0003.48,0002.76
2022-12-17 20:40:00,,0822.0,5.03,0.00,22.8,21.7,00.0,31.5,24.6,04.6,0000.0,0010.95,0003.49,0002.76
2022-12-17 20:41:00,,0822.0,4.96,0.00,22.8,21.7,00.0,31.6,24.6,04.6,0000.0,0011.05,0003.51,0002.76
2022-12-17 20:42:00,,0822.1,5.04,0.00,22.9,21.7,00.0,31.6,24.7,04.6,0000.0,0010.66,0003.53,0002.77
2022-12-17 20:43:00,,0822.1,4.97,0.00,22.9,21.7,00.0,31.6,24.7,04.6,0000.0,0010.50,0003.54,0002.78
2022-12-17 20:44:00,,0821.8,5.03,0.00,22.9,21.7,00.0,31.6,24.8,04.6,0000.0,0010.12,0003.51,0002.77
2022-12-17 20:45:00,,0821.8,4.98,0.00,22.9,21.7,00.0,31.6,24.7,04.6,0000.0,0009.92,0003.51,0002.77
2022-12-17 20:46:00,,0821.8,4.97,0.00,22.9,21.7,00.0,31.6,24.7,04.6,0000.0,0009.87,0003.51,0002.77
2022-12-17 20:47:00,,0821.8,5.03,0.00,22.9,21.7,00.0,31.6,24.8,04.6,0000.0,0009.67,0003.47,0002.76
2022-12-17 20:48:00,,0821.8,4.98,0.00,22.9,21.7,00.0,31.7,24.8,04.5,0000.0,0008.56,0003.46,0002.76
2022-12-17 20:49:00,,0821.9,5.03,0.00,22.9,21.7,00.0,31.7,24.8,04.6,0000.0,0007.89,0003.45,0002.75
2022-12-17 20:50:00,,0821.9,4.99,0.00,22.9,21.8,00.0,31.7,24.8,04.5,0000.0,0007.37,0003.42,0002.74
2022-12-17 20:51:00,,0822.0,4.97,0.00,22.9,21.7,00.0,31.7,24.8,04.6,0000.0,0007.31,0003.39,0002.72
2022-12-17 20:52:00,,0821.8,5.04,0.00,22.9,21.7,00.0,31.7,24.8,04.5,0000.0,0008.14,0003.42,0002.72
2022-12-17 20:53:00,,0821.8,4.97,0.00,22.9,21.7,00.0,31.7,24.8,04.6,0000.0,0008.09,0003.42,0002.70
2022-12-17 20:54:00,,0821.8,5.04,0.00,22.9,21.7,00.0,31.7,24.8,04.5,0000.0,0008.21,0003.44,0002.69
2022-12-17 20:55:00,,0821.8,4.98,0.00,22.9,21.7,00.0,31.7,24.8,04.6,0000.0,0007.99,0003.47,0002.70
2022-12-17 20:56:00,,0821.9,5.00,0.00,22.9,21.7,00.0,31.7,24.8,04.6,0000.0,0007.85,0003.51,0002.71
2022-12-17 20:57:00,,0821.8,5.01,0.00,22.9,21.7,00.0,31.7,24.8,04.6,0000.0,0008.97,0003.50,0002.71
2022-12-17 20:58:00,,0821.9,4.98,0.00,23.0,21.8,00.0,31.7,24.8,04.6,0000.0,0009.60,0003.48,0002.70
2022-12-17 20:59:00,,0822.0,5.03,0.00,23.0,21.8,00.0,31.8,24.8,04.6,0000.0,0009.52,0003.46,0002.68
